Time,TemperatureF,DewpointF,PressureIn,WindDirection,WindDirectionDegrees,WindSpeedMPH,WindSpeedGustMPH,Humidity,HourlyPrecipIn,Conditions,Clouds,dailyrainin,SoftwareType,DateUTC
2013-07-04 00:01:00,81.7,76.0,30.11,South,187,0.0,-999.0,83,-99.99,,,0.06,weatherlink.com 1.10,2013-07-04 04:01:00,
2013-07-04 00:16:00,81.6,76.0,30.11,SE,129,1.0,-999.0,83,-99.99,,,0.06,weatherlink.com 1.10,2013-07-04 04:16:00,
2013-07-04 00:31:00,81.8,76.0,30.11,ESE,119,4.0,-999.0,83,-99.99,,,0.06,weatherlink.com 1.10,2013-07-04 04:31:00,
2013-07-04 00:46:00,81.7,76.0,30.10,SSE,165,6.0,-999.0,83,-99.99,,,0.06,weatherlink.com 1.10,2013-07-04 04:46:00,
2013-07-04 01:01:00,81.7,76.0,30.10,SE,133,4.0,-999.0,83,-99.99,,,0.06,weatherlink.com 1.10,2013-07-04 05:01:00,
2013-07-04 01:16:00,81.8,76.0,30.10,East,88,2.0,-999.0,82,-99.99,,,0.06,weatherlink.com 1.10,2013-07-04 05:16:00,
2013-07-04 01:31:00,81.9,76.0,30.10,South,186,6.0,-999.0,82,-99.99,,,0.00,weatherlink.com 1.10,2013-07-04 05:31:00,
2013-07-04 01:46:00,81.7,76.0,30.10,SSE,161,4.0,-999.0,82,-99.99,,,0.00,weatherlink.com 1.10,2013-07-04 05:46:00,
2013-07-04 02:01:00,81.6,76.0,30.10,SSE,166,4.0,-999.0,82,-99.99,,,0.00,weatherlink.com 1.10,2013-07-04 06:01:00,
2013-07-04 02:16:00,81.5,76.0,30.09,SSE,153,0.0,-999.0,83,-99.99,,,0.00,weatherlink.com 1.10,2013-07-04 06:16:00,
2013-07-04 02:31:00,79.1,75.0,30.09,WSW,250,0.0,-999.0,87,-99.99,,,0.00,weatherlink.com 1.10,2013-07-04 06:31:00,
2013-07-04 02:46:00,77.5,74.0,30.08,NW,311,1.0,-999.0,90,-99.99,,,0.00,weatherlink.com 1.10,2013-07-04 06:46:00,
2013-07-04 03:01:00,76.8,74.0,30.07,NW,320,1.0,-999.0,91,-99.99,,,0.00,weatherlink.com 1.10,2013-07-04 07:01:00,
2013-07-04 03:17:00,76.5,74.0,30.07,NNW,329,0.0,-999.0,91,-99.99,,,0.00,weatherlink.com 1.10,2013-07-04 07:17:00,
2013-07-04 03:32:00,76.4,74.0,30.07,SSE,161,5.0,-999.0,92,-99.99,,,0.02,weatherlink.com 1.10,2013-07-04 07:32:00,
2013-07-04 03:47:00,77.0,75.0,30.06,SSE,150,0.0,-999.0,92,-99.99,,,0.03,weatherlink.com 1.10,2013-07-04 07:47:00,
2013-07-04 04:02:00,77.3,75.0,30.06,SE,140,0.0,-999.0,93,-99.99,,,0.03,weatherlink.com 1.10,2013-07-04 08:02:00,
2013-07-04 04:17:00,77.5,75.0,30.06,SE,126,0.0,-999.0,93,-99.99,,,0.03,weatherlink.com 1.10,2013-07-04 08:17:00,
2013-07-04 04:32:00,78.0,76.0,30.06,SSE,149,1.0,-999.0,92,-99.99,,,0.03,weatherlink.com 1.10,2013-07-04 08:32:00,
2013-07-04 04:47:00,78.5,75.0,30.06,East,82,2.0,-999.0,90,-99.99,,,0.03,weatherlink.com 1.10,2013-07-04 08:47:00,
2013-07-04 05:02:00,78.8,75.0,30.06,East,95,2.0,-999.0,88,-99.99,,,0.03,weatherlink.com 1.10,2013-07-04 09:02:00,
2013-07-04 05:17:00,79.1,75.0,30.06,South,172,0.0,-999.0,88,-99.99,,,0.03,weatherlink.com 1.10,2013-07-04 09:17:00,
2013-07-04 05:32:00,79.3,76.0,30.06,SE,146,0.0,-999.0,88,-99.99,,,0.03,weatherlink.com 1.10,2013-07-04 09:32:00,
2013-07-04 05:47:00,79.5,75.0,30.06,SE,126,4.0,-999.0,87,-99.99,,,0.03,weatherlink.com 1.10,2013-07-04 09:47:00,
2013-07-04 06:02:00,79.7,75.0,30.06,East,86,2.0,-999.0,86,-99.99,,,0.03,weatherlink.com 1.10,2013-07-04 10:02:00,
2013-07-04 06:17:00,79.8,76.0,30.07,ESE,110,0.0,-999.0,87,-99.99,,,0.03,weatherlink.com 1.10,2013-07-04 10:17:00,
2013-07-04 06:32:00,80.1,76.0,30.07,SE,126,1.0,-999.0,86,-99.99,,,0.03,weatherlink.com 1.10,2013-07-04 10:32:00,
2013-07-04 06:47:00,80.1,76.0,30.07,SSE,150,2.0,-999.0,87,-99.99,,,0.03,weatherlink.com 1.10,2013-07-04 10:47:00,
2013-07-04 07:02:00,79.7,76.0,30.07,South,172,4.0,-999.0,88,-99.99,,,0.03,weatherlink.com 1.10,2013-07-04 11:02:00,
2013-07-04 07:17:00,80.0,76.0,30.08,SSE,161,1.0,-999.0,87,-99.99,,,0.03,weatherlink.com 1.10,2013-07-04 11:17:00,
2013-07-04 07:32:00,80.7,76.0,30.08,SSE,160,2.0,-999.0,84,-99.99,,,0.03,weatherlink.com 1.10,2013-07-04 11:32:00,
2013-07-04 07:47:00,81.6,76.0,30.09,SE,137,5.0,-999.0,82,-99.99,,,0.03,weatherlink.com 1.10,2013-07-04 11:47:00,
2013-07-04 08:02:00,82.4,76.0,30.09,ESE,117,5.0,-999.0,81,-99.99,,,0.03,weatherlink.com 1.10,2013-07-04 12:02:00,
2013-07-04 08:17:00,83.4,76.0,30.09,East,82,7.0,-999.0,78,-99.99,,,0.03,weatherlink.com 1.10,2013-07-04 12:17:00,
2013-07-04 08:32:00,84.2,77.0,30.10,South,172,4.0,-999.0,78,-99.99,,,0.04,weatherlink.com 1.10,2013-07-04 12:32:00,
2013-07-04 08:47:00,84.6,76.0,30.10,SE,139,9.0,-999.0,76,-99.99,,,0.04,weatherlink.com 1.10,2013-07-04 12:47:00,
2013-07-04 09:02:00,84.6,76.0,30.10,SE,145,6.0,-999.0,76,-99.99,,,0.04,weatherlink.com 1.10,2013-07-04 13:02:00,
2013-07-04 09:17:00,84.9,77.0,30.11,SE,137,5.0,-999.0,76,-99.99,,,0.04,weatherlink.com 1.10,2013-07-04 13:17:00,
2013-07-04 09:32:00,85.6,76.0,30.11,SSE,156,9.0,-999.0,73,-99.99,,,0.04,weatherlink.com 1.10,2013-07-04 13:32:00,
2013-07-04 09:47:00,85.4,75.0,30.11,ESE,109,6.0,-999.0,72,-99.99,,,0.04,weatherlink.com 1.10,2013-07-04 13:47:00,
2013-07-04 10:02:00,85.6,76.0,30.11,SE,146,4.0,-999.0,73,-99.99,,,0.04,weatherlink.com 1.10,2013-07-04 14:02:00,
2013-07-04 10:17:00,86.2,77.0,30.12,SSE,166,6.0,-999.0,74,-99.99,,,0.04,weatherlink.com 1.10,2013-07-04 14:17:00,
2013-07-04 10:32:00,85.9,78.0,30.12,South,172,9.0,-999.0,76,-99.99,,,0.04,weatherlink.com 1.10,2013-07-04 14:32:00,
2013-07-04 10:47:00,86.5,76.0,30.12,ESE,119,6.0,-999.0,70,-99.99,,,0.04,weatherlink.com 1.10,2013-07-04 14:47:00,
2013-07-04 11:02:00,86.8,76.0,30.12,ESE,114,8.0,-999.0,71,-99.99,,,0.04,weatherlink.com 1.10,2013-07-04 15:02:00,
2013-07-04 11:17:00,85.9,76.0,30.12,SSE,167,11.0,-999.0,73,-99.99,,,0.04,weatherlink.com 1.10,2013-07-04 15:17:00,
2013-07-04 11:32:00,86.8,76.0,30.12,South,176,7.0,-999.0,71,-99.99,,,0.04,weatherlink.com 1.10,2013-07-04 15:32:00,
2013-07-04 11:47:00,87.6,77.0,30.13,SSE,168,8.0,-999.0,70,-99.99,,,0.04,weatherlink.com 1.10,2013-07-04 15:47:00,
2013-07-04 12:02:00,87.5,76.0,30.12,ESE,119,5.0,-999.0,69,-99.99,,,0.04,weatherlink.com 1.10,2013-07-04 16:02:00,
2013-07-04 12:17:00,87.9,76.0,30.12,South,186,12.0,-999.0,68,-99.99,,,0.04,weatherlink.com 1.10,2013-07-04 16:17:00,
2013-07-04 12:32:00,87.7,77.0,30.12,ESE,108,13.0,-999.0,70,-99.99,,,0.04,weatherlink.com 1.10,2013-07-04 16:32:00,
2013-07-04 12:47:00,88.2,77.0,30.12,SSE,165,1.0,-999.0,69,-99.99,,,0.04,weatherlink.com 1.10,2013-07-04 16:47:00,
2013-07-04 13:02:00,88.8,77.0,30.11,South,175,6.0,-999.0,69,-99.99,,,0.04,weatherlink.com 1.10,2013-07-04 17:02:00,
2013-07-04 13:17:00,89.1,78.0,30.12,SSE,167,8.0,-999.0,69,-99.99,,,0.04,weatherlink.com 1.10,2013-07-04 17:17:00,
2013-07-04 13:32:00,88.1,77.0,30.11,East,90,4.0,-999.0,69,-99.99,,,0.04,weatherlink.com 1.10,2013-07-04 17:32:00,
2013-07-04 13:47:00,88.6,76.0,30.11,SE,127,6.0,-999.0,67,-99.99,,,0.04,weatherlink.com 1.10,2013-07-04 17:47:00,
2013-07-04 14:02:00,88.9,77.0,30.11,East,97,11.0,-999.0,67,-99.99,,,0.04,weatherlink.com 1.10,2013-07-04 18:02:00,
2013-07-04 14:17:00,88.6,76.0,30.10,SE,130,11.0,-999.0,67,-99.99,,,0.04,weatherlink.com 1.10,2013-07-04 18:17:00,
2013-07-04 14:32:00,87.9,76.0,30.10,SSW,194,4.0,-999.0,67,-99.99,,,0.04,weatherlink.com 1.10,2013-07-04 18:32:00,
2013-07-04 14:47:00,87.2,77.0,30.09,East,90,8.0,-999.0,71,-99.99,,,0.04,weatherlink.com 1.10,2013-07-04 18:47:00,
2013-07-04 15:02:00,88.5,77.0,30.09,ESE,111,5.0,-999.0,69,-99.99,,,0.04,weatherlink.com 1.10,2013-07-04 19:02:00,
2013-07-04 15:17:00,88.1,76.0,30.10,SW,229,4.0,-999.0,67,-99.99,,,0.04,weatherlink.com 1.10,2013-07-04 19:17:00,
2013-07-04 15:32:00,88.4,77.0,30.08,SE,128,5.0,-999.0,69,-99.99,,,0.04,weatherlink.com 1.10,2013-07-04 19:32:00,
2013-07-04 15:47:00,86.0,78.0,30.08,ESE,108,5.0,-999.0,77,-99.99,,,0.04,weatherlink.com 1.10,2013-07-04 19:47:00,
2013-07-04 16:02:00,86.4,78.0,30.08,SSE,167,4.0,-999.0,75,-99.99,,,0.04,weatherlink.com 1.10,2013-07-04 20:02:00,
2013-07-04 16:17:00,85.5,76.0,30.08,SSW,196,5.0,-999.0,72,-99.99,,,0.04,weatherlink.com 1.10,2013-07-04 20:17:00,
2013-07-04 16:32:00,85.6,76.0,30.07,ESE,109,5.0,-999.0,72,-99.99,,,0.04,weatherlink.com 1.10,2013-07-04 20:32:00,
2013-07-04 16:47:00,86.5,76.0,30.07,SSE,165,6.0,-999.0,70,-99.99,,,0.04,weatherlink.com 1.10,2013-07-04 20:47:00,
2013-07-04 17:02:00,86.3,76.0,30.06,SE,138,12.0,-999.0,71,-99.99,,,0.04,weatherlink.com 1.10,2013-07-04 21:02:00,
2013-07-04 17:17:00,86.9,76.0,30.06,SSW,207,7.0,-999.0,71,-99.99,,,0.04,weatherlink.com 1.10,2013-07-04 21:17:00,
2013-07-04 17:32:00,86.6,76.0,30.07,ESE,107,2.0,-999.0,71,-99.99,,,0.04,weatherlink.com 1.10,2013-07-04 21:32:00,
2013-07-04 17:47:00,86.3,77.0,30.07,SSE,167,8.0,-999.0,73,-99.99,,,0.04,weatherlink.com 1.10,2013-07-04 21:47:00,
2013-07-04 18:02:00,86.1,77.0,30.08,ESE,109,9.0,-999.0,73,-99.99,,,0.04,weatherlink.com 1.10,2013-07-04 22:02:00,
2013-07-04 18:17:00,86.1,77.0,30.07,ESE,111,2.0,-999.0,73,-99.99,,,0.04,weatherlink.com 1.10,2013-07-04 22:17:00,
2013-07-04 18:32:00,86.1,77.0,30.07,SSE,147,0.0,-999.0,74,-99.99,,,0.04,weatherlink.com 1.10,2013-07-04 22:32:00,
2013-07-04 18:47:00,85.6,76.0,30.07,ENE,74,3.0,-999.0,74,-99.99,,,0.04,weatherlink.com 1.10,2013-07-04 22:47:00,
2013-07-04 19:02:00,84.8,76.0,30.07,South,174,2.0,-999.0,75,-99.99,,,0.04,weatherlink.com 1.10,2013-07-04 23:02:00,
2013-07-04 19:17:00,84.5,76.0,30.08,SSE,153,4.0,-999.0,76,-99.99,,,0.04,weatherlink.com 1.10,2013-07-04 23:17:00,
2013-07-04 19:32:00,84.3,77.0,30.09,ESE,115,6.0,-999.0,78,-99.99,,,0.04,weatherlink.com 1.10,2013-07-04 23:32:00,
2013-07-04 19:48:00,83.7,77.0,30.09,East,86,3.0,-999.0,80,-99.99,,,0.04,weatherlink.com 1.10,2013-07-04 23:48:00,
2013-07-04 20:03:00,83.3,77.0,30.09,SSE,152,5.0,-999.0,80,-99.99,,,0.04,weatherlink.com 1.10,2013-07-05 00:03:00,
2013-07-04 20:18:00,83.1,76.0,30.09,SSW,207,1.0,-999.0,80,-99.99,,,0.04,weatherlink.com 1.10,2013-07-05 00:18:00,
2013-07-04 20:33:00,82.9,76.0,30.09,East,93,6.0,-999.0,80,-99.99,,,0.04,weatherlink.com 1.10,2013-07-05 00:33:00,
2013-07-04 20:48:00,82.8,76.0,30.10,SE,126,1.0,-999.0,79,-99.99,,,0.04,weatherlink.com 1.10,2013-07-05 00:48:00,
2013-07-04 21:03:00,82.7,76.0,30.11,ESE,106,2.0,-999.0,80,-99.99,,,0.04,weatherlink.com 1.10,2013-07-05 01:03:00,
2013-07-04 21:18:00,82.5,76.0,30.11,East,96,1.0,-999.0,81,-99.99,,,0.04,weatherlink.com 1.10,2013-07-05 01:18:00,
2013-07-04 21:33:00,82.4,76.0,30.12,East,87,3.0,-999.0,81,-99.99,,,0.04,weatherlink.com 1.10,2013-07-05 01:33:00,
2013-07-04 21:48:00,82.5,76.0,30.13,ESE,123,6.0,-999.0,81,-99.99,,,0.04,weatherlink.com 1.10,2013-07-05 01:48:00,
2013-07-04 22:03:00,82.6,77.0,30.12,NE,45,2.0,-999.0,82,-99.99,,,0.04,weatherlink.com 1.10,2013-07-05 02:03:00,
2013-07-04 22:18:00,82.5,76.0,30.13,SSE,153,0.0,-999.0,81,-99.99,,,0.04,weatherlink.com 1.10,2013-07-05 02:18:00,
2013-07-04 22:33:00,82.4,76.0,30.14,SE,138,4.0,-999.0,81,-99.99,,,0.04,weatherlink.com 1.10,2013-07-05 02:33:00,
2013-07-04 22:48:00,81.2,72.0,30.15,SE,141,6.0,-999.0,74,-99.99,,,0.04,weatherlink.com 1.10,2013-07-05 02:48:00,
2013-07-04 23:03:00,78.8,72.0,30.14,SE,136,0.0,-999.0,80,-99.99,,,0.04,weatherlink.com 1.10,2013-07-05 03:03:00,
2013-07-04 23:18:00,77.7,73.0,30.15,SSE,161,0.0,-999.0,84,-99.99,,,0.04,weatherlink.com 1.10,2013-07-05 03:18:00,
2013-07-04 23:33:00,76.8,72.0,30.14,SSE,167,0.0,-999.0,86,-99.99,,,0.04,weatherlink.com 1.10,2013-07-05 03:33:00,
2013-07-04 23:48:00,76.6,73.0,30.13,SSE,167,0.0,-999.0,87,-99.99,,,0.04,weatherlink.com 1.10,2013-07-05 03:48:00,